Weather History for Philip, SD

Change the Weather History Date:

Thursday, March 28, 2013

  Actual Average Record
Temperature  
Mean Temperature 48 °F 39 °F  
Max Temperature 67 °F 53 °F 84 °F (1988)
Min Temperature 29 °F 26 °F 3 °F (1965)
Degree Days  
Heating Degree Days 17 26  
Month to date heating degree days 896 863  
Since 1 July heating degree days 5922 6228  
Cooling Degree Days 0 0  
Month to date cooling degree days 0 0  
Year to date cooling degree days 0 0  
Moisture  
Dew Point 28 °F    
Average Humidity 50    
Maximum Humidity 75    
Minimum Humidity 24    
Precipitation  
Precipitation 0.00 in 0.03 in 1.18 in (2007)
Month to date precipitation 0.40 1.14  
Year to date precipitation 1.22 1.92  
Sea Level Pressure  
Sea Level Pressure 30.08 in    
Wind  
Wind Speed 5 mph (ESE)    
Max Wind Speed 14 mph    
Max Gust Speed 17 mph    
Visibility 10 miles    
Events      
T = Trace of Precipitation, MM = Missing Value Source: NWS Daily Summary

Daily Weather History Graph

Daily Weather History Graph

Search for Another Location

Airport:

Trip Planner

Search our weather history database for the weather conditions in past years. The results will help you decide how hot, cold, wet, or windy it might be!

Date:

Astronomy

Mar. 28, 2013 Rise Set
Actual Time 6:34 AM MDT 7:08 PM MDT
Civil Twilight 6:05 AM MDT 7:38 PM MDT
Nautical Twilight 5:31 AM MDT 8:12 PM MDT
Astronomical Twilight 4:55 AM MDT 8:48 PM MDT
Moon 9:08 PM MDT (3/28) 6:59 AM MDT (3/28)
Length of Visible Light 13h 32m
Length of Day
12h 34m
Full, 98% of the Moon is Illuminated
Mar 28
Full
Apr 2
Last Quarter
Apr 10
New
Apr 18
First Quarter
Apr 25
Full

Hourly Weather History & Observations

Time (MDT) Temp. Windchill Dew Point Humidity Pressure Visibility Wind Dir Wind Speed Gust Speed Precip Events Conditions
12:55 AM 35.1 °F 32.2 °F 23.0 °F 61% 30.13 in 10.0 mi East 3.5 mph - N/A   Overcast
1:55 AM 32.0 °F 26.4 °F 21.0 °F 64% 30.12 in 10.0 mi East 5.8 mph - N/A   Scattered Clouds
2:55 AM 30.0 °F 23.2 °F 21.0 °F 69% 30.10 in 10.0 mi ENE 6.9 mph - N/A   Clear
3:55 AM 28.9 °F 22.8 °F 21.0 °F 72% 30.09 in 10.0 mi East 5.8 mph - N/A   Overcast
4:55 AM 33.1 °F 27.7 °F 23.0 °F 66% 30.07 in 10.0 mi East 5.8 mph - N/A   Overcast
5:55 AM 34.0 °F 28.8 °F 23.0 °F 64% 30.06 in 10.0 mi South 5.8 mph - N/A   Partly Cloudy
6:55 AM 32.0 °F - 21.9 °F 66% 30.09 in 10.0 mi Calm Calm - N/A   Clear
7:55 AM 37.0 °F 34.5 °F 25.0 °F 62% 30.09 in 10.0 mi East 3.5 mph - N/A   Clear
8:55 AM 41.0 °F 39.0 °F 27.0 °F 57% 30.11 in 10.0 mi SE 3.5 mph - N/A   Clear
9:55 AM 52.0 °F - 32.0 °F 47% 30.10 in 10.0 mi South 11.5 mph 16.1 mph N/A   Clear
10:55 AM 55.9 °F - 34.0 °F 44% 30.10 in 10.0 mi SW 8.1 mph - N/A   Clear
11:55 AM 60.1 °F - 34.0 °F 38% 30.08 in 10.0 mi Variable 3.5 mph - N/A   Clear
12:55 PM 61.0 °F - 34.0 °F 36% 30.06 in 10.0 mi SE 4.6 mph - N/A   Clear
1:55 PM 64.0 °F - 34.0 °F 33% 30.05 in 10.0 mi SSW 8.1 mph - N/A   Clear
2:55 PM 64.9 °F - 30.9 °F 28% 30.04 in 10.0 mi Calm Calm - N/A   Clear
3:55 PM 66.9 °F - 28.9 °F 24% 30.03 in 10.0 mi NE 5.8 mph - N/A   Partly Cloudy
4:55 PM 64.9 °F - 27.0 °F 24% 30.03 in 10.0 mi West 3.5 mph - N/A   Clear
5:55 PM 64.0 °F - 27.0 °F 25% 30.04 in 10.0 mi Calm Calm - N/A   Clear
6:55 PM 57.9 °F - 28.0 °F 32% 30.06 in 10.0 mi East 4.6 mph - N/A   Clear
7:55 PM 50.0 °F - 27.0 °F 41% 30.08 in 10.0 mi NNE 9.2 mph - N/A   Clear
8:55 PM 44.1 °F 40.1 °F 28.0 °F 53% 30.10 in 10.0 mi East 6.9 mph - N/A   Clear
9:55 PM 46.0 °F 43.9 °F 33.1 °F 61% 30.09 in 10.0 mi East 4.6 mph - N/A   Clear
10:55 PM 46.9 °F - 33.1 °F 59% 30.08 in 10.0 mi Calm Calm - N/A   Clear
11:55 PM 41.0 °F - 30.9 °F 67% 30.08 in 10.0 mi Calm Calm - N/A   Clear